星链-4346 (STARLINK-4346 )

导读

STARLINK-4346是美国SpaceX公司星链星座的一员,于2022年7月11日发射。它属于Group 4-16批次,总质量约297kg,运行在近地轨道,高度约550km,倾角53°左右。作为低轨互联网通信卫星,它采用Ku/Ka频段提供服务,配备氪离子推进与自主碰撞规避系统,为全球提供高速低延迟宽带网络接入,是星链大规模星座部署的组成部分。

基本信息
目录编号:
53073
目录名称:
STARLINK-4346
国际标识:
2022-077AG
轨道中心:
EARTH
卫星名称:
星链-4346
卫星全名:
星链-4346 (STARLINK-4346 )
卫星状态:
在轨 (已飞行1523 天)
发射日期:
2022-07-11 UTC
国别 :
美国 (US)
星等 :
--
该卫星已列入 空间交会检测服务 Space Conjunction Data Service (SCDS) ,当前飞行风险评估等级: 高风险
轨道信息
数据来源 国际轨道数据
星历时间: 2026-09-11T15:25:48+0800
10小时前
查看轨道信息
半长轴: 6869.735km
偏心率: 0.0005073
轨道倾角: 97.633°
近地点辐角 302.693°
升交点赤经 85.373°
平近点角 57.382°
近地点: 488.112km
远地点: 495.084km
周期: 94.443分钟
每日圈数: 15.247296
详细信息
固有亮度:
5
最大亮度:
2.5
卫星平台:
Starlink v1.5
覆盖范围:
全球
运营商:
太空探索技术公司
运营商所在国:
美国
制造商(研发单位):
太空探索技术公司
制造商所在国:
美国
使用方式:
暂无
卫星简介
星链(Starlink)计划是由太空探索技术公司(SpaceX)提出的一个巨型低轨卫星互联网星座项目,计划在2019年至2024年间在太空搭建由约1.2万颗卫星组成的“星链”网络,其中1584颗将部署在地球上空550千米处的近地轨道,并从2020年开始工作。该卫星仍在工作。
2D轨道图
3D轨道图
轨道高度分析图
轨道倾角分析图
轨道综合分析图
查看轨道综合分析图
交会数据列表
事件ID 空间交会对象 最接近时刻(TCA) 交会距离 交会风险概率(CRP) 交会风险指数(CRI) 操作
CDM_260914-074005-187305-307321
2026-09-14T
07:40:07+0000
1.532 km
极远距离
5.929125E-6 低风险 0.5
CDM_260914-072205-194905-307321
OBJECT D (51949)
2026-09-14T
07:22:19+0000
2.110 km
极远距离
2.330034E-6 低风险 0.42
与全量物体交会距离演化趋势
与全量物体交会风险概率演化趋势